This is the latest recevied weather packets stored in our database for station/object KF0EZB. If no packets are shown the sender has not sent any weather packets the latest 10 day(s).
| Time | Temp. | Humidity | Pressure | Rain* | Wind** | Luminosity | Snow |
|---|---|---|---|---|---|---|---|
| 1777598115 | 12.22° C | 73% | 1018.1 hPa | 0 mm | - | 7 W/m² | - |
| 1777597810 | 12.22° C | 72% | 1018.1 hPa | 0 mm | - | 10 W/m² | - |
| 1777597504 | 12.22° C | 71% | 1017.9 hPa | 0 mm | - | 13 W/m² | - |
| 1777597200 | 12.22° C | 70% | 1018.1 hPa | 0 mm | - | 18 W/m² | - |
| 1777596895 | 12.78° C | 70% | 1018.2 hPa | 0 mm | - | 20 W/m² | - |
| 1777596592 | 12.78° C | 70% | 1018 hPa | 0 mm | - | 23 W/m² | - |
| 1777596289 | 12.78° C | 69% | 1018 hPa | 0 mm | - | 26 W/m² | - |
| 1777595987 | 12.78° C | 69% | 1018.2 hPa | 0 mm | - | 31 W/m² | - |
| 1777595681 | 12.78° C | 68% | 1018.1 hPa | 0 mm | - | 34 W/m² | - |
| 1777595377 | 13.33° C | 67% | 1017.9 hPa | 0 mm | - | 49 W/m² | - |
| 1777595073 | 13.89° C | 66% | 1018.1 hPa | 0 mm | - | 69 W/m² | - |
| 1777594770 | 13.33° C | 67% | 1017.8 hPa | 0 mm | - | 79 W/m² | - |
| 1777594467 | 13.89° C | 66% | 1018.1 hPa | 0 mm | - | 94 W/m² | - |
| 1777594162 | 13.33° C | 67% | 1017.9 hPa | 0 mm | - | 106 W/m² | - |
| 1777593859 | 13.33° C | 67% | 1018.1 hPa | 0 mm | - | 108 W/m² | - |
| 1777593555 | 13.33° C | 67% | 1018.1 hPa | 0 mm | - | 119 W/m² | - |
| 1777593254 | 13.33° C | 67% | 1018.3 hPa | 0 mm | - | 177 W/m² | - |
| 1777592949 | 13.89° C | 67% | 1018.3 hPa | 0 mm | - | 124 W/m² | - |
| 1777592644 | 13.89° C | 67% | 1018.2 hPa | 0 mm | - | 143 W/m² | - |
| 1777592340 | 13.33° C | 68% | 1018.4 hPa | 0 mm | - | 176 W/m² | - |
| 1777592035 | 13.33° C | 70% | 1018.4 hPa | 0 mm | - | 157 W/m² | - |
| 1777591733 | 12.78° C | 70% | 1018.3 hPa | 0 mm | - | 157 W/m² | - |
| 1777591428 | 12.78° C | 70% | 1018.4 hPa | 0 mm | - | 138 W/m² | - |
| 1777591125 | 12.78° C | 70% | 1018.7 hPa | 0 mm | - | 127 W/m² | - |
| 1777590820 | 12.78° C | 71% | 1018.6 hPa | 0 mm | - | 118 W/m² | - |
* Rain latest hour (hover to see other rain measurements)
** Current wind speed in m/s (hover to see current wind gust speed)